SCP
0 0 0 0 0 0 0 0 0 0 0 0 0 0 0 0 0 0 0 0 0 0 0 0 0 0 0 0 0 0 0 0 0 0 0 0 0 0 0 0 0 0 0 0 0
0 0 0 0 0 0 0 0 0 0 0 0 0 0 0 0 0 0 0 0 0 0 0 0 0 0 0 0 0 0 0 0 0 0 0 0 0 0 0 0 0 0 0 0 0
0 0 0 0 0 0 0 0 0 0 0 0 0 0 0 0 0 0 0 0 0 0 0 0 0 0 0 0 0 0 0 0 0 0 0 0 0 0 0 0 0 0 0 0 0
0 0 0 0 0 0 0 0 0 0 0 0 0 0 0 0 0 0 0 0 0 0 0 0 0 0 0 0 0 0 0 0 0 0 0 0 0 0 0 0 0 0 0 0 0
0 0 0 0 0 0 0 0 0 0 0 0 0 0 0 0 0 0 0 0 0 0 0 0 0 0 0 0 0 0 0 0 0 0 0 0 0 0 0 0 0 0 0 0 0
0 0 0 0 0 0 0 0 0 0 0 0 0 0 0 0 0 0 0 0 0 0 0 0 0 0 0 0 0 0 0 0 0 0 0 0 0 0 0 0 0 0 0 0 0
0 0 0 0 0 0 0 0 0 0 0 0 0 0 0 0 0 0 0 0 0 0 0 0 0 0 0 0 0 0 0 0 0 0 0 0 0 0 0 0 0 0 0 0 0
0 0 0 0 0 0 0 0 0 0 0 0 0 0 0 0 0 0 0 0 0 0 0 0 0 0 0 0 0 0 0 0 0 0 0 0 0 0 0 0 0 0 0 0 0
0 0 0 0 0 0 0 0 0 0 0 0 0 0 0 0 0 0 0 0 0 0 0 0 0 0 0 0 0 0 0 0 0 0 0 0 0 0 0 0 0 0 0 0 0
0 0 0 0 0 0 0 0 0 0 0 0 0 0 0 0 0 0 0 0 0 0 0 0 0 0 0 0 0 0 0 0 0 0 0 0 0 0 0 0 0 0 0 0 0
0 0 0 0 0 0 0 0 0 0 0 0 0 0 0 0 0 0 0 0 0 0 0 0 0 0 0 0 0 0 0 0 0 0 0 0 0 0 0 0 0 0 0 0 0
0 0 0 0 0 0 0 0 0 0 0 0 0 0 0 0 0 0 0 0 0 0 0 0 0 0 0 0 0 0 0 0 0 0 0 0 0 0 0 0 0 0 0 0 0
0 0 0 0 0 0 0 0 0 0 0 0 0 0 0 0 0 0 0 0 0 0 0 0 0 0 0 0 0 0 0 0 0 0 0 0 0 0 0 0 0 0 0 0 0
0 0 0 0 0 0 0 0 0 0 0 0 0 0 0 0 0 0 0 0 0 0 0 0 0 0 0 0 0 0 0 0 0 0 0 0 -0 0 0 0 0 0 0 0 0
0 0 0 0 0 0 0 0 0 0 0 0 0 0 0 0 0 0 0 0 0 0 0 0 0 0 0 0 0 0 0 0 0 0 0 0 0 0 0 0 0 0 0 0 0
0 0 0 0 0 0 0 0 0 0 0 0 0 0 0 0 0 0 0 0 0 0 0 0 0 0 0 0 0 0 0 0 0 0 0 0 0 -0 0 0 0 -0 0 0 0
0 0 0 0 0 0 0 0 0 0 0 0 0 0 0 0 0 0 0 0 0 0 0 0 0 0 0 0 0 0 0 0 0 0 0 0 0 0 0 0 0 0 0 0 0
0 0 0 0 0 0 0 0 0 0 0 0 0 0 0 0 0 0 0 0 0 0 0 0 0 0 0 0 0 0 0 0 0 0 0 0 0 0 0 0 0 0 0 0 0
0 0 0 0 0 0 0 0 0 0 0 0 0 0 0 0 0 0 0 0 0 0 0 0 0 0 0 0 0 0 0 0 0 0 0 0 0 0 0 0 0 0 0 0 0
0 0 0 0 0 0 0 0 0 0 0 0 0 0 0 0 0 0 0 0 0 0 0 0 0 0 0 0 0 0 0 0 0 0 0 0 0 0 0 0 -0 -0 0 0 0
0 0 0 0 0 0 0 0 0 0 0 0 0 0 0 0 0 0 0 0 0 0 0 0 0 0 0 0 0 0 0 0 0 0 0 0 0 0 0 0 0 0 0 0 0
0 0 0 0 0 0 0 0 0 0 0 0 0 0 0 0 0 0 0 0 0 0 0 0 0 0 0 0 0 0 0 0 0 0 0 0 0 0 0 0 0 0 0 0 0
0 0 0 0 0 0 0 0 0 0 0 0 0 0 0 0 0 0 0 0 0 0 0 0 0 0 0 0 0 0 0 0 0 0 0 0 0 0 0 0 0 0 0 0 0
0 0 0 0 0 0 0 0 0 0 0 0 0 0 0 0 0 0 0 0 0 0 0 0 0 0 0 0 0 0 0 0 0 0 0 0 0 0 0 0 0 0 0 0 0
0 0 0 0 0 0 0 0 0 0 0 0 0 0 0 0 0 0 0 0 0 0 0 0 0 0 0 0 0 0 0 0 0 0 0 0 0 0 0 0 0 0 0 0 0
0 0 0 0 0 0 0 0 0 0 0 0 0 0 0 0 0 0 0 0 0 0 0 0 0 0 0 0 0 0 0 0 0 0 0 0 0 0 0 0 0 0 0 0 0
0 0 0 0 0 0 0 0 0 0 0 0 0 0 0 0 0 0 0 0 0 0 0 0 0 0 0 0 0 0 0 0 0 0 0 0 0 0 0 0 0 0 0 0 0
Wind_Speed_500mb
13 13 12 10 9 8 7 7 6 6 4 4 4 5 5 5 6 4 5 5 5 5 7 10 10 11 12 9 9 5 9 2 1 9 7 17 7 7 12 20 11 13 21 20 49
15 13 12 10 10 9 8 7 7 6 6 5 6 7 7 6 3 3 3 4 6 8 11 11 15 11 7 5 5 9 7 10 4 5 6 8 10 19 12 13 7 16 23 43 47
18 17 15 13 12 11 9 9 8 8 8 8 7 8 8 7 6 3 8 6 7 11 12 13 14 10 8 6 4 5 8 7 4 5 5 11 7 15 19 8 23 32 38 42 45
22 20 18 16 15 14 12 11 11 10 10 11 9 9 8 5 6 11 9 11 10 13 19 17 11 5 6 3 3 4 4 6 6 6 7 8 7 9 21 15 23 29 35 41 44
28 26 23 21 19 17 16 15 14 13 12 12 12 9 8 7 9 12 4 4 9 18 19 15 10 6 8 4 3 5 2 5 7 11 10 11 16 15 21 24 21 26 38 38 40
34 31 29 26 24 22 20 19 18 15 14 14 13 11 10 9 10 13 10 9 12 15 13 10 7 7 6 4 4 7 4 11 13 23 12 10 10 11 20 31 31 35 40 41 41
38 36 34 32 29 26 25 22 20 18 16 15 13 13 17 19 14 15 13 12 13 16 15 12 9 6 7 2 1 2 6 10 22 18 10 12 14 20 34 34 44 45 44 44 45
37 38 36 34 33 30 27 26 23 20 18 16 14 14 14 18 23 28 22 19 18 18 16 12 11 8 5 4 5 4 6 5 6 18 8 16 21 14 23 45 53 50 48 49 50
33 33 33 33 32 30 28 25 24 22 19 17 15 12 12 20 30 27 22 20 20 19 17 12 11 6 7 9 8 9 7 10 16 21 9 10 16 7 14 48 52 54 55 55 52
27 29 30 30 29 27 26 25 24 23 23 16 21 9 24 17 20 24 26 21 17 21 15 12 7 6 5 7 11 12 9 10 13 10 6 9 26 13 17 39 56 59 59 60 62
30 27 26 25 24 23 19 17 16 13 32 20 11 10 5 24 22 23 30 28 20 14 10 9 7 16 31 21 9 9 9 11 8 8 11 18 28 30 41 46 53 59 64 69 72
37 32 28 28 24 23 21 15 15 7 15 32 45 39 15 30 21 31 38 25 17 11 13 6 16 30 8 11 12 11 10 20 14 12 16 19 27 20 21 32 63 76 84 83 78
37 34 34 33 33 36 32 24 20 13 8 19 45 54 50 43 25 46 55 28 12 15 22 18 14 19 17 10 13 18 17 10 18 5 7 9 19 18 20 54 65 79 90 86 92
42 39 28 40 47 46 44 32 22 4 5 11 16 20 47 32 18 43 63 27 12 23 14 15 13 11 12 14 18 13 14 11 11 3 13 7 20 13 12 24 21 69 79 92 86
39 40 34 43 28 50 39 40 29 14 10 5 9 10 29 34 15 23 62 28 14 16 14 17 13 15 10 14 19 14 9 11 4 6 5 8 11 14 15 17 26 47 68 71 77
27 37 51 45 60 37 35 28 42 9 22 8 6 9 14 8 6 10 17 12 7 11 6 7 4 13 16 6 14 14 10 11 8 5 12 20 19 12 13 25 14 42 53 62 66
30 27 37 28 40 36 33 42 7 16 7 13 11 13 7 11 7 7 12 16 15 11 17 6 12 6 11 10 5 9 13 4 7 2 16 8 14 34 14 11 18 26 51 34 49
25 29 32 46 42 44 43 6 14 11 11 5 9 6 15 13 7 10 13 12 13 2 6 15 11 26 16 20 15 16 17 12 14 9 10 5 16 12 18 34 51 60 48 32 47
28 31 40 38 48 49 43 17 16 11 11 18 8 7 9 8 11 11 16 12 18 22 18 14 13 3 2 6 23 11 18 11 4 5 4 11 16 16 17 18 29 54 33 27 47
33 30 46 31 30 43 11 23 10 8 2 7 21 15 20 15 14 17 20 13 12 29 15 11 7 3 0 9 8 12 12 5 3 4 11 11 15 20 12 17 31 20 30 35 46
24 15 10 20 36 18 8 8 10 25 8 4 16 12 15 16 16 12 14 6 17 14 44 9 9 0 7 11 21 7 8 6 10 10 10 6 15 13 12 15 18 20 37 42 50
16 7 11 37 19 11 17 17 17 10 22 10 8 7 14 20 19 21 27 16 37 28 21 16 6 9 18 5 6 2 16 13 13 13 9 3 34 11 10 8 16 28 20 29 43
17 24 23 46 14 21 8 21 16 16 21 17 15 12 10 11 9 14 11 15 29 19 23 16 8 1 6 5 3 14 17 34 5 6 31 11 22 3 4 8 12 11 11 20 34
14 6 26 41 43 21 30 25 22 29 18 21 11 15 15 30 20 8 10 7 28 21 19 28 9 15 21 10 10 15 17 20 35 19 18 41 58 31 6 5 15 12 8 17 30
27 13 17 9 30 34 25 15 37 24 34 43 14 38 29 21 31 36 31 13 7 18 16 15 14 22 33 5 6 7 19 35 45 62 28 60 39 73 24 22 48 50 47 35 42
29 17 18 30 21 32 38 24 36 38 20 22 33 33 31 24 18 4 33 21 26 11 21 21 14 18 32 30 27 25 19 29 37 49 48 55 54 51 18 35 42 49 56 57 59
57 57 22 23 30 17 20 50 41 25 23 47 36 31 25 45 57 55 30 8 4 5 25 18 19 19 43 33 29 19 63 47 42 31 42 46 68 62 26 26 48 57 58 61 67
Wind_Direction_500mb
184 185 188 194 193 207 203 212 219 221 239 272 299 317 329 328 310 260 225 210 207 184 153 141 125 110 88 70 74 83 63 117 120 171 212 174 142 135 142 144 150 169 162 168 177
197 202 204 212 215 216 223 230 242 256 270 281 300 312 320 328 303 148 235 225 203 175 166 152 126 117 101 68 53 80 99 198 193 173 190 195 197 161 159 153 135 151 157 163 180
212 216 215 220 234 236 240 243 256 270 280 289 295 305 312 322 168 121 95 98 147 159 165 140 123 114 92 65 43 121 159 205 202 148 150 176 196 183 155 221 202 193 175 176 188
223 226 231 236 236 246 250 255 259 266 278 284 291 297 300 286 183 150 101 76 106 141 144 139 130 99 86 84 112 87 225 211 201 190 177 185 200 215 201 220 223 218 199 190 193
232 233 234 239 245 248 256 259 262 267 271 281 288 290 282 248 214 194 201 153 131 142 151 137 120 108 123 151 130 161 254 233 254 243 236 208 228 222 231 227 206 196 194 199 200
242 239 240 239 243 247 251 257 261 262 270 276 282 282 270 254 219 206 216 205 188 187 184 174 141 117 119 150 174 174 240 270 266 249 240 206 235 206 229 214 201 202 206 211 213
241 244 243 245 245 245 249 249 253 259 261 269 274 276 266 251 221 207 201 194 200 209 209 202 182 186 157 110 174 268 299 315 247 231 227 207 287 235 229 211 209 213 218 220 223
239 242 244 246 248 248 246 250 250 250 255 257 263 274 257 241 225 225 224 226 216 209 210 213 207 182 180 136 25 359 44 329 284 152 222 158 269 254 223 208 211 215 220 226 227
239 236 242 245 245 248 251 251 255 255 250 252 255 243 251 234 229 222 218 221 213 207 203 194 168 152 139 93 6 355 243 222 310 190 143 173 261 264 231 206 216 218 224 231 231
240 238 236 239 247 248 251 254 256 257 250 246 238 256 230 220 211 211 205 200 192 186 167 164 146 88 49 121 222 206 222 241 231 208 156 218 262 266 223 213 225 226 230 233 234
244 237 238 238 239 243 245 246 255 253 226 211 214 213 206 192 182 185 182 173 164 166 160 174 126 201 210 199 185 172 199 238 244 217 181 227 240 250 241 232 241 240 237 235 237
237 239 240 249 245 240 232 216 217 225 291 244 240 232 240 194 183 187 181 174 172 178 130 70 230 225 173 192 219 234 237 259 297 229 184 253 252 245 225 236 235 241 244 243 237
242 233 238 238 241 237 235 230 236 258 266 260 235 232 219 212 213 195 186 191 173 158 189 180 212 187 168 172 196 233 224 236 231 349 245 320 271 239 244 237 249 250 254 252 244
240 244 262 233 226 225 233 223 219 185 283 257 214 226 207 201 238 219 199 181 191 196 167 238 238 148 173 202 178 220 211 214 248 306 262 139 285 225 236 244 234 250 245 245 242
242 251 251 251 243 204 231 212 187 180 258 195 167 181 176 174 148 191 196 211 181 176 146 232 179 188 172 200 168 229 181 207 242 231 334 199 278 275 204 244 249 249 252 249 245
255 235 235 242 247 223 202 191 168 161 226 212 140 161 139 177 101 105 175 186 158 153 275 230 233 164 198 141 169 147 86 50 50 29 268 205 216 197 204 223 246 261 258 255 245
265 251 227 206 205 207 209 177 216 195 146 198 182 174 158 148 127 142 162 179 179 160 217 160 217 192 155 98 64 129 117 295 317 331 252 323 228 251 289 241 219 251 270 254 238
270 261 251 230 219 215 198 159 207 205 207 121 118 107 181 151 175 153 137 182 249 186 125 179 274 180 186 187 172 193 164 163 216 213 278 342 244 256 231 254 253 261 278 266 229
275 264 261 239 224 196 189 213 201 189 197 149 117 143 223 205 153 143 192 201 201 184 186 181 260 11 124 131 158 199 212 184 11 91 358 227 287 278 257 284 266 257 274 231 223
285 281 261 253 238 225 263 217 225 239 170 161 185 178 184 191 159 180 176 203 213 193 188 219 260 51 174 99 42 156 167 87 17 215 253 279 270 243 274 245 248 267 243 227 219
285 294 271 209 209 196 239 236 267 245 237 275 208 187 188 177 185 197 209 229 204 192 195 169 161 229 116 207 176 148 177 174 136 157 193 275 258 216 226 245 264 265 261 231 219
244 238 221 188 182 195 202 185 207 245 238 232 313 231 200 175 192 208 200 226 196 142 174 209 127 177 200 214 234 336 196 169 174 206 237 152 266 172 188 245 269 291 288 235 227
239 246 263 199 213 208 204 214 222 199 218 177 233 212 212 188 215 198 186 230 178 160 166 174 186 71 320 14 290 213 210 211 144 104 221 162 263 355 176 9 287 264 271 233 226
238 268 224 228 232 215 215 209 211 216 248 223 216 187 218 235 214 221 214 263 186 196 173 144 171 197 218 174 140 188 202 201 208 225 210 230 253 245 194 279 297 308 270 250 240
225 223 225 201 236 236 212 199 213 215 212 208 232 222 207 231 221 226 212 206 223 211 135 153 225 213 241 165 137 215 210 203 208 225 206 252 231 256 242 256 261 274 272 235 231
215 227 239 246 273 220 235 211 213 218 179 210 221 222 223 242 220 195 229 207 208 176 184 178 218 199 251 236 229 248 238 230 232 239 230 246 257 255 202 259 272 263 258 237 238
223 232 252 238 237 251 224 232 234 220 234 221 207 219 209 227 237 249 245 133 78 245 213 186 211 196 240 231 234 235 237 235 230 234 226 233 242 264 263 256 255 256 260 255 251
Wind_Speed_850mb
13 13 12 10 9 8 7 7 6 6 4 4 4 5 5 5 6 4 5 5 5 5 7 10 10 11 12 9 9 5 9 2 1 9 7 17 7 7 12 20 11 13 21 20 49
15 13 12 10 10 9 8 7 7 6 6 5 6 7 7 6 3 3 3 4 6 8 11 11 15 11 7 5 5 9 7 10 4 5 6 8 10 19 12 13 7 16 23 43 47
18 17 15 13 12 11 9 9 8 8 8 8 7 8 8 7 6 3 8 6 7 11 12 13 14 10 8 6 4 5 8 7 4 5 5 11 7 15 19 8 23 32 38 42 45
22 20 18 16 15 14 12 11 11 10 10 11 9 9 8 5 6 11 9 11 10 13 19 17 11 5 6 3 3 4 4 6 6 6 7 8 7 9 21 15 23 29 35 41 44
28 26 23 21 19 17 16 15 14 13 12 12 12 9 8 7 9 12 4 4 9 18 19 15 10 6 8 4 3 5 2 5 7 11 10 11 16 15 21 24 21 26 38 38 40
34 31 29 26 24 22 20 19 18 15 14 14 13 11 10 9 10 13 10 9 12 15 13 10 7 7 6 4 4 7 4 11 13 23 12 10 10 11 20 31 31 35 40 41 41
38 36 34 32 29 26 25 22 20 18 16 15 13 13 17 19 14 15 13 12 13 16 15 12 9 6 7 2 1 2 6 10 22 18 10 12 14 20 34 34 44 45 44 44 45
37 38 36 34 33 30 27 26 23 20 18 16 14 14 14 18 23 28 22 19 18 18 16 12 11 8 5 4 5 4 6 5 6 18 8 16 21 14 23 45 53 50 48 49 50
33 33 33 33 32 30 28 25 24 22 19 17 15 12 12 20 30 27 22 20 20 19 17 12 11 6 7 9 8 9 7 10 16 21 9 10 16 7 14 48 52 54 55 55 52
27 29 30 30 29 27 26 25 24 23 23 16 21 9 24 17 20 24 26 21 17 21 15 12 7 6 5 7 11 12 9 10 13 10 6 9 26 13 17 39 56 59 59 60 62
30 27 26 25 24 23 19 17 16 13 32 20 11 10 5 24 22 23 30 28 20 14 10 9 7 16 31 21 9 9 9 11 8 8 11 18 28 30 41 46 53 59 64 69 72
37 32 28 28 24 23 21 15 15 7 15 32 45 39 15 30 21 31 38 25 17 11 13 6 16 30 8 11 12 11 10 20 14 12 16 19 27 20 21 32 63 76 84 83 78
37 34 34 33 33 36 32 24 20 13 8 19 45 54 50 43 25 46 55 28 12 15 22 18 14 19 17 10 13 18 17 10 18 5 7 9 19 18 20 54 65 79 90 86 92
42 39 28 40 47 46 44 32 22 4 5 11 16 20 47 32 18 43 63 27 12 23 14 15 13 11 12 14 18 13 14 11 11 3 13 7 20 13 12 24 21 69 79 92 86
39 40 34 43 28 50 39 40 29 14 10 5 9 10 29 34 15 23 62 28 14 16 14 17 13 15 10 14 19 14 9 11 4 6 5 8 11 14 15 17 26 47 68 71 77
27 37 51 45 60 37 35 28 42 9 22 8 6 9 14 8 6 10 17 12 7 11 6 7 4 13 16 6 14 14 10 11 8 5 12 20 19 12 13 25 14 42 53 62 66
30 27 37 28 40 36 33 42 7 16 7 13 11 13 7 11 7 7 12 16 15 11 17 6 12 6 11 10 5 9 13 4 7 2 16 8 14 34 14 11 18 26 51 34 49
25 29 32 46 42 44 43 6 14 11 11 5 9 6 15 13 7 10 13 12 13 2 6 15 11 26 16 20 15 16 17 12 14 9 10 5 16 12 18 34 51 60 48 32 47
28 31 40 38 48 49 43 17 16 11 11 18 8 7 9 8 11 11 16 12 18 22 18 14 13 3 2 6 23 11 18 11 4 5 4 11 16 16 17 18 29 54 33 27 47
33 30 46 31 30 43 11 23 10 8 2 7 21 15 20 15 14 17 20 13 12 29 15 11 7 3 0 9 8 12 12 5 3 4 11 11 15 20 12 17 31 20 30 35 46
24 15 10 20 36 18 8 8 10 25 8 4 16 12 15 16 16 12 14 6 17 14 44 9 9 0 7 11 21 7 8 6 10 10 10 6 15 13 12 15 18 20 37 42 50
16 7 11 37 19 11 17 17 17 10 22 10 8 7 14 20 19 21 27 16 37 28 21 16 6 9 18 5 6 2 16 13 13 13 9 3 34 11 10 8 16 28 20 29 43
17 24 23 46 14 21 8 21 16 16 21 17 15 12 10 11 9 14 11 15 29 19 23 16 8 1 6 5 3 14 17 34 5 6 31 11 22 3 4 8 12 11 11 20 34
14 6 26 41 43 21 30 25 22 29 18 21 11 15 15 30 20 8 10 7 28 21 19 28 9 15 21 10 10 15 17 20 35 19 18 41 58 31 6 5 15 12 8 17 30
27 13 17 9 30 34 25 15 37 24 34 43 14 38 29 21 31 36 31 13 7 18 16 15 14 22 33 5 6 7 19 35 45 62 28 60 39 73 24 22 48 50 47 35 42
29 17 18 30 21 32 38 24 36 38 20 22 33 33 31 24 18 4 33 21 26 11 21 21 14 18 32 30 27 25 19 29 37 49 48 55 54 51 18 35 42 49 56 57 59
57 57 22 23 30 17 20 50 41 25 23 47 36 31 25 45 57 55 30 8 4 5 25 18 19 19 43 33 29 19 63 47 42 31 42 46 68 62 26 26 48 57 58 61 67
Wind_Direction_850mb
184 185 188 194 193 207 203 212 219 221 239 272 299 317 329 328 310 260 225 210 207 184 153 141 125 110 88 70 74 83 63 117 120 171 212 174 142 135 142 144 150 169 162 168 177
197 202 204 212 215 216 223 230 242 256 270 281 300 312 320 328 303 148 235 225 203 175 166 152 126 117 101 68 53 80 99 198 193 173 190 195 197 161 159 153 135 151 157 163 180
212 216 215 220 234 236 240 243 256 270 280 289 295 305 312 322 168 121 95 98 147 159 165 140 123 114 92 65 43 121 159 205 202 148 150 176 196 183 155 221 202 193 175 176 188
223 226 231 236 236 246 250 255 259 266 278 284 291 297 300 286 183 150 101 76 106 141 144 139 130 99 86 84 112 87 225 211 201 190 177 185 200 215 201 220 223 218 199 190 193
232 233 234 239 245 248 256 259 262 267 271 281 288 290 282 248 214 194 201 153 131 142 151 137 120 108 123 151 130 161 254 233 254 243 236 208 228 222 231 227 206 196 194 199 200
242 239 240 239 243 247 251 257 261 262 270 276 282 282 270 254 219 206 216 205 188 187 184 174 141 117 119 150 174 174 240 270 266 249 240 206 235 206 229 214 201 202 206 211 213
241 244 243 245 245 245 249 249 253 259 261 269 274 276 266 251 221 207 201 194 200 209 209 202 182 186 157 110 174 268 299 315 247 231 227 207 287 235 229 211 209 213 218 220 223
239 242 244 246 248 248 246 250 250 250 255 257 263 274 257 241 225 225 224 226 216 209 210 213 207 182 180 136 25 359 44 329 284 152 222 158 269 254 223 208 211 215 220 226 227
239 236 242 245 245 248 251 251 255 255 250 252 255 243 251 234 229 222 218 221 213 207 203 194 168 152 139 93 6 355 243 222 310 190 143 173 261 264 231 206 216 218 224 231 231
240 238 236 239 247 248 251 254 256 257 250 246 238 256 230 220 211 211 205 200 192 186 167 164 146 88 49 121 222 206 222 241 231 208 156 218 262 266 223 213 225 226 230 233 234
244 237 238 238 239 243 245 246 255 253 226 211 214 213 206 192 182 185 182 173 164 166 160 174 126 201 210 199 185 172 199 238 244 217 181 227 240 250 241 232 241 240 237 235 237
237 239 240 249 245 240 232 216 217 225 291 244 240 232 240 194 183 187 181 174 172 178 130 70 230 225 173 192 219 234 237 259 297 229 184 253 252 245 225 236 235 241 244 243 237
242 233 238 238 241 237 235 230 236 258 266 260 235 232 219 212 213 195 186 191 173 158 189 180 212 187 168 172 196 233 224 236 231 349 245 320 271 239 244 237 249 250 254 252 244
240 244 262 233 226 225 233 223 219 185 283 257 214 226 207 201 238 219 199 181 191 196 167 238 238 148 173 202 178 220 211 214 248 306 262 139 285 225 236 244 234 250 245 245 242
242 251 251 251 243 204 231 212 187 180 258 195 167 181 176 174 148 191 196 211 181 176 146 232 179 188 172 200 168 229 181 207 242 231 334 199 278 275 204 244 249 249 252 249 245
255 235 235 242 247 223 202 191 168 161 226 212 140 161 139 177 101 105 175 186 158 153 275 230 233 164 198 141 169 147 86 50 50 29 268 205 216 197 204 223 246 261 258 255 245
265 251 227 206 205 207 209 177 216 195 146 198 182 174 158 148 127 142 162 179 179 160 217 160 217 192 155 98 64 129 117 295 317 331 252 323 228 251 289 241 219 251 270 254 238
270 261 251 230 219 215 198 159 207 205 207 121 118 107 181 151 175 153 137 182 249 186 125 179 274 180 186 187 172 193 164 163 216 213 278 342 244 256 231 254 253 261 278 266 229
275 264 261 239 224 196 189 213 201 189 197 149 117 143 223 205 153 143 192 201 201 184 186 181 260 11 124 131 158 199 212 184 11 91 358 227 287 278 257 284 266 257 274 231 223
285 281 261 253 238 225 263 217 225 239 170 161 185 178 184 191 159 180 176 203 213 193 188 219 260 51 174 99 42 156 167 87 17 215 253 279 270 243 274 245 248 267 243 227 219
285 294 271 209 209 196 239 236 267 245 237 275 208 187 188 177 185 197 209 229 204 192 195 169 161 229 116 207 176 148 177 174 136 157 193 275 258 216 226 245 264 265 261 231 219
244 238 221 188 182 195 202 185 207 245 238 232 313 231 200 175 192 208 200 226 196 142 174 209 127 177 200 214 234 336 196 169 174 206 237 152 266 172 188 245 269 291 288 235 227
239 246 263 199 213 208 204 214 222 199 218 177 233 212 212 188 215 198 186 230 178 160 166 174 186 71 320 14 290 213 210 211 144 104 221 162 263 355 176 9 287 264 271 233 226
238 268 224 228 232 215 215 209 211 216 248 223 216 187 218 235 214 221 214 263 186 196 173 144 171 197 218 174 140 188 202 201 208 225 210 230 253 245 194 279 297 308 270 250 240
225 223 225 201 236 236 212 199 213 215 212 208 232 222 207 231 221 226 212 206 223 211 135 153 225 213 241 165 137 215 210 203 208 225 206 252 231 256 242 256 261 274 272 235 231
215 227 239 246 273 220 235 211 213 218 179 210 221 222 223 242 220 195 229 207 208 176 184 178 218 199 251 236 229 248 238 230 232 239 230 246 257 255 202 259 272 263 258 237 238
223 232 252 238 237 251 224 232 234 220 234 221 207 219 209 227 237 249 245 133 78 245 213 186 211 196 240 231 234 235 237 235 230 234 226 233 242 264 263 256 255 256 260 255 251